User: anonymous   Login
Location: Unspecified
(0.0000°N, 0.0000°E)
Time: 07:10:37
(UTC+00:00)
Language:

WGS F4 (USA 233) - Orbit

View from above orbital plane
View from above orbital plane
View from above satellite
View from above satellite

Ground track
Ground track

The orbit data is extracted from the following two-line orbital elements,

1 38070U 12003A   23267.03799434 -.00000220  00000-0  00000+0 0  9997
2 38070   0.0141 165.8007 0000299  25.8002 273.1035  1.00269591 42729
Epoch (UTC): 24 September 2023 00:54:42
Eccentricity: 0.0000299
inclination: 0.0141°
perigee height: 35785 km
apogee height: 35788 km
right ascension of ascending node: 165.8007°
argument of perigee: 25.8002°
revolutions per day: 1.00269591
mean anomaly at epoch: 273.1035°
orbit number at epoch: 4272

The dashed part of the orbit path shows where the satellite is in the earth's shadow,  

DLR